EST,Max TemperatureF,Mean TemperatureF,Min TemperatureF,Max Dew PointF,MeanDew PointF,Min DewpointF,Max Humidity, Mean Humidity, Min Humidity, Max Sea Level PressureIn, Mean Sea Level PressureIn, Min Sea Level PressureIn, Max VisibilityMiles, Mean VisibilityMiles, Min VisibilityMiles, Max Wind SpeedMPH, Mean Wind SpeedMPH, Max Gust SpeedMPH,PrecipitationIn, CloudCover, Events, WindDirDegrees
2013-2-1,24,20,14,18,13,6,93,78,57,30.20,29.90,29.67,10,4,0,23,14,31,0.03,7,Fog-Snow,288
2013-2-2,19,12,5,12,8,2,88,76,62,30.22,30.12,30.04,10,6,2,12,5,,0.00,7,Snow,137
2013-2-3,25,13,1,18,10,-2,93,78,55,30.03,29.88,29.80,10,8,2,9,3,,0.00,5,Snow,272
2013-2-4,19,16,12,18,13,8,93,83,62,29.97,29.89,29.80,10,3,0,20,8,26,0.04,8,Fog-Snow,283
2013-2-5,23,12,1,12,7,-1,92,71,48,30.04,29.95,29.89,10,10,5,7,1,,0.00,4,,110
2013-2-6,27,18,3,24,14,1,92,75,43,30.42,30.10,29.91,10,6,0,24,7,31,0.01,5,Fog-Snow,306
2013-2-7,26,14,3,9,4,-2,84,61,44,30.54,30.43,30.30,10,10,10,17,5,,0.00,7,,106
2013-2-8,30,26,21,27,21,9,100,79,53,30.27,29.97,29.84,10,4,0,24,12,32,0.31,8,Fog-Snow,104
2013-2-9,23,12,0,18,8,-3,88,71,46,30.45,30.20,29.92,10,8,2,18,9,24,0.00,3,Snow,326
2013-2-10,32,12,-7,12,2,-11,92,69,34,30.52,30.41,30.16,10,8,2,13,3,,0.00,4,,101
2013-2-11,42,34,26,37,28,8,93,79,47,30.16,29.80,29.62,10,8,3,20,10,26,0.18,7,Rain,152
2013-2-12,34,32,30,30,28,24,92,82,70,29.95,29.81,29.71,10,6,1,22,13,31,0.03,8,Snow,267
2013-2-13,37,28,19,25,21,15,85,71,46,29.92,29.83,29.75,10,10,9,9,4,,0.00,4,Snow,298
2013-2-14,37,28,18,32,24,16,96,79,54,29.97,29.90,29.80,10,7,1,9,2,,0.06,7,Snow,111
2013-2-15,39,34,30,32,28,22,96,76,53,30.03,29.93,29.84,10,8,2,15,8,20,0.03,8,Rain-Snow,280
2013-2-16,30,24,19,23,11,3,78,58,34,30.05,30.00,29.92,10,10,7,17,9,23,0.00,3,Snow,314
2013-2-17,19,14,9,8,2,-1,84,62,45,30.06,29.92,29.86,10,10,7,26,11,33,0.00,2,,304
2013-2-18,23,12,1,8,3,-3,83,63,52,30.30,30.22,30.10,10,10,10,17,11,,0.00,2,,285
2013-2-19,33,27,21,32,24,8,100,82,53,30.09,29.75,29.63,10,5,0,18,10,24,0.30,7,Fog-Rain-Snow,95
2013-2-20,26,24,19,20,17,12,89,80,58,29.96,29.86,29.74,10,4,1,25,15,38,0.00,8,Snow,271
2013-2-21,19,16,12,17,11,5,92,80,70,30.46,30.15,29.93,10,5,1,21,15,26,0.00,8,Snow,289
2013-2-22,33,22,12,23,16,9,88,76,59,30.47,30.34,30.17,10,10,8,14,6,,0.00,6,Snow,108
2013-2-23,35,34,32,34,31,22,100,90,64,30.14,29.96,29.85,10,6,1,13,7,,0.15,8,Rain-Snow,112
2013-2-24,34,31,28,33,28,23,96,88,69,30.02,29.90,29.85,10,6,1,14,7,,0.02,8,Rain-Snow,275
2013-2-25,37,28,19,30,28,19,100,88,70,30.28,30.15,30.01,10,8,4,15,5,,0.00,6,,286
2013-2-26,39,28,16,28,23,14,96,74,57,30.30,30.19,29.96,10,10,9,26,6,38,0.00,1,Rain,111
2013-2-27,39,36,33,36,32,28,100,89,73,29.98,29.67,29.57,10,7,1,22,15,33,0.46,8,Rain-Snow,121
2013-2-28,36,34,32,34,33,31,100,95,85,29.67,29.61,29.56,10,8,2,7,2,,0.10,8,Rain-Snow,312